www.pogodaiklimat.ru

Погода и климат >> Архив погоды >> Норвегия >> Хемседал II


ПОГОДА в Хемседале II

  • Прогноз погоды в Хемседале II
  • Монитор погоды в Хемседале II

АРХИВ ПОГОДЫ в Хемседале II

Время (UTC), дата Ветер
(напр.,м/с)
 
Видим.   Явления Облачность Т
(С)
Тd
(С)
f
(%)
Тe
(С)
Тes
(С)
Комфортность P
(гПа)
Po
(гПа)
Тmin
(С)
Tmax
(С)
R
(мм)
R24
(мм)
S
(см)
10 14.08 н/о н/о +14.4 +2.7 45 1005.5 936.5
11 14.08 н/о н/о +14.7 +2.9 45 1005.5 936.6
12 14.08 н/о н/о +15.5 +1.6 39 1005.4 936.7
13 14.08 н/о н/о +14.8 +4.8 51 1005.6 936.7
14 14.08 н/о н/о +15.5 +4.9 49 1005.6 936.8
15 14.08 н/о н/о +15.3 +4.1 47 1005.7 936.9
16 14.08 н/о н/о +15.1 +4.8 50 1005.6 936.8
17 14.08 н/о н/о +13.6 +5.0 56 1006.1 936.9
18 14.08 н/о н/о +10.8 +3.8 62 1007.0 937.1 +8.3 +16.0
19 14.08 н/о н/о +9.5 +4.3 70 1007.6 937.4
20 14.08 н/о н/о +7.7 +4.5 80 1008.4 937.6
21 14.08 н/о н/о +6.4 +3.7 83 1008.7 937.6
22 14.08 н/о н/о +6.6 +3.8 82 1008.8 937.8
23 14.08 н/о н/о +4.3 +2.7 89 1009.8 938.1
00 15.08 н/о н/о +2.7 +1.8 94 1010.6 938.4
01 15.08 н/о н/о +1.4 +0.7 95 1010.9 938.4
02 15.08 н/о н/о +0.6 -0.1 95 1010.9 938.2
03 15.08 н/о н/о -0.2 -0.7 96 1010.9 938.0
04 15.08 н/о н/о -0.2 -0.7 96 1010.9 938.0
05 15.08 н/о н/о -0.1 -0.5 97 1011.0 938.1
06 15.08 н/о н/о +4.1 +3.7 97 1009.8 938.0 -0.4 +10.8
07 15.08 н/о н/о +8.3 +5.4 82 1008.4 937.8
08 15.08 н/о н/о +12.1 +4.8 61 1007.0 937.4
09 15.08 н/о н/о +14.1 +4.7 53 1006.1 937.0
10 15.08 н/о н/о +14.4 +4.7 52 1005.6 936.6
11 15.08 н/о н/о +14.8 +4.2 49 1005.2 936.3
12 15.08 н/о н/о +15.0 +3.8 47 1004.8 936.0
13 15.08 н/о н/о +16.7 +3.4 41 1004.1 935.7
14 15.08 н/о н/о +16.8 +3.5 41 1003.8 935.5
15 15.08 н/о н/о +16.1 +2.5 40 1004.2 935.7
16 15.08 н/о н/о +15.1 +4.2 48 1004.7 935.9
17 15.08 н/о н/о +13.8 +5.5 57 1005.0 935.9
18 15.08 н/о н/о +12.8 +6.4 65 1005.6 936.2 +4.1 +17.0
19 15.08 н/о н/о +12.2 +6.5 68 1006.0 936.5
20 15.08 н/о н/о +10.7 +7.8 82 1006.5 936.6
21 15.08 н/о н/о +9.6 +8.5 93 1006.8 936.6
22 15.08 н/о н/о +9.5 +8.7 95 1006.7 936.5
23 15.08 н/о н/о +9.6 +8.8 95 1006.3 936.1
00 16.08 н/о н/о +9.8 +9.0 95 1005.8 935.7
01 16.08 н/о н/о +9.7 +9.1 96 1005.4 935.3
02 16.08 н/о н/о +9.8 +9.2 96 1005.1 935.1
03 16.08 н/о н/о +9.8 +9.2 96 1005.0 935.0
04 16.08 н/о н/о +10.0 +9.6 97 1005.2 935.2
05 16.08 н/о н/о +10.5 +10.0 97 1005.2 935.3
06 16.08 н/о н/о +10.8 +10.2 96 1005.3 935.5 +9.5 +12.8
07 16.08 н/о н/о +11.6 +10.8 95 1005.2 935.6
08 16.08 н/о н/о +13.2 +11.6 90 1005.1 935.9
09 16.08 н/о н/о +14.8 +11.0 78 1004.7 935.8
10 16.08 н/о н/о +15.0 +11.6 80 1004.5 935.7
11 16.08 н/о н/о +18.0 +11.3 65 1003.6 935.6
12 16.08 н/о н/о +19.2 +10.5 57 1003.2 935.4
13 16.08 н/о н/о +21.4 +8.3 43 1002.1 935.0
14 16.08 н/о н/о +20.8 +2.2 29 1002.0 934.7
15 16.08 н/о н/о +18.4 +9.7 57 1002.4 934.5
16 16.08 н/о н/о +17.4 +8.6 56 1002.4 934.3
17 16.08 н/о н/о +15.7 +10.9 73 1002.8 934.3
18 16.08 н/о н/о +14.9 +11.1 78 1003.0 934.3 +10.8 +21.9
19 16.08 н/о н/о +13.0 +11.2 89 1003.5 934.3
20 16.08 н/о н/о +12.1 +11.0 93 1003.8 934.4
21 16.08 н/о н/о +11.5 +10.6 94 1003.9 934.4
22 16.08 н/о н/о +11.0 +10.1 94 1003.7 934.1
23 16.08 н/о н/о +10.8 +9.4 91 1003.5 933.8
00 17.08 н/о н/о +10.6 +8.7 88 1003.3 933.6
01 17.08 н/о н/о +10.4 +8.8 90 1002.9 933.2
02 17.08 н/о н/о +10.1 +8.7 91 1002.5 932.7
03 17.08 н/о н/о +11.0 +7.9 81 1001.9 932.4
04 17.08 н/о н/о +10.2 +8.3 88 1001.8 932.1
05 17.08 н/о н/о +10.0 +9.1 94 1001.4 931.7
06 17.08 н/о н/о +10.2 +8.5 89 1000.9 931.2 +9.9 +14.9
07 17.08 н/о н/о +10.2 +8.5 89 1000.0 930.4
08 17.08 н/о н/о +9.9 +9.1 95 999.2 929.6
09 17.08 н/о н/о +10.4 +9.6 95 998.2 928.8
10 17.08 н/о н/о +11.1 +10.3 95 997.3 928.1
11 17.08 н/о н/о +12.2 +10.8 91 996.6 927.7
12 17.08 н/о н/о +12.6 +11.2 91 995.7 927.0
13 17.08 н/о н/о +13.2 +11.6 90 994.9 926.4
14 17.08 н/о н/о +13.2 +12.1 93 994.4 925.9
15 17.08 н/о н/о +14.1 +13.0 93 994.4 926.1
16 17.08 н/о н/о +14.9 +13.3 90 993.9 925.8
17 17.08 н/о н/о +13.6 +12.0 90 994.8 926.4
18 17.08 н/о н/о +13.0 +11.6 91 995.3 926.7 +9.8 +14.9
19 17.08 н/о н/о +12.1 +11.0 93 995.7 926.9
20 17.08 н/о н/о +11.2 +10.3 94 996.5 927.4
21 17.08 н/о н/о +10.4 +9.6 95 997.0 927.7
22 17.08 н/о н/о +9.5 +8.9 96 997.6 928.0
23 17.08 н/о н/о +10.1 +9.5 96 997.7 928.3
00 18.08 н/о н/о +9.5 +8.9 96 998.4 928.8
01 18.08 н/о н/о +8.6 +8.0 96 998.9 929.0
02 18.08 н/о н/о +6.4 +5.8 96 1000.2 929.7
03 18.08 н/о н/о +5.3 +4.9 97 1000.4 929.6
04 18.08 н/о н/о +4.4 +4.0 97 1001.4 930.3
05 18.08 н/о н/о +4.6 +4.2 97 1001.5 930.5
06 18.08 н/о н/о +8.0 +7.6 97 1000.9 930.7 +4.0 +13.0
07 18.08 н/о н/о +7.9 +7.2 95 1001.2 931.0
08 18.08 н/о н/о +9.8 +7.6 86 1000.7 931.0
09 18.08 н/о н/о +12.3 +9.1 81 1000.0 930.9
10 18.08 н/о н/о +15.1 +6.7 57 999.2 930.8
11 18.08 н/о н/о +14.7 +6.8 59 999.2 930.7
12 18.08 н/о н/о +14.0 +5.6 57 999.6 930.9
13 18.08 н/о н/о +15.0 +6.1 55 999.1 930.7
14 18.08 н/о н/о +16.0 +7.0 55 998.5 930.3
15 18.08 н/о н/о +14.1 +7.2 63 998.8 930.2
16 18.08 н/о н/о +13.3 +9.7 79 998.8 930.0
17 18.08 н/о н/о +13.0 +7.3 68 998.6 929.8
18 18.08 н/о н/о +12.3 +6.8 69 998.8 929.8 +7.6 +16.4
19 18.08 н/о н/о +11.0 +7.5 79 999.2 929.9
20 18.08 н/о н/о +10.3 +7.4 82 999.3 929.8
21 18.08 н/о н/о +9.6 +7.7 88 999.4 929.7
22 18.08 н/о н/о +9.1 +7.7 91 999.4 929.6
23 18.08 н/о н/о +8.8 +7.9 94 999.4 929.5
00 19.08 н/о н/о +8.9 +7.8 93 999.1 929.3
01 19.08 н/о н/о +8.7 +7.8 94 998.9 929.1
02 19.08 н/о н/о +8.6 +7.9 95 998.9 929.0
03 19.08 н/о н/о +8.5 +7.8 95 998.7 928.8
04 19.08 н/о н/о +7.9 +7.2 95 999.1 929.0
05 19.08 н/о н/о +7.9 +7.3 96 999.4 929.3
06 19.08 н/о н/о +8.4 +7.7 95 999.4 929.4 +7.5 +12.3
07 19.08 н/о н/о +10.1 +8.9 92 999.1 929.5
08 19.08 н/о н/о +11.2 +8.4 83 998.8 929.5
09 19.08 н/о н/о +12.2 +8.1 76 998.3 929.3
10 19.08 н/о н/о +11.5 +9.9 90 998.8 929.6
11 19.08 н/о н/о +11.6 +8.6 82 999.8 930.5
12 19.08 н/о н/о +16.0 +8.5 61 998.8 930.6
13 19.08 н/о н/о +15.6 +6.9 56 999.3 931.0
14 19.08 н/о н/о +16.2 +6.6 53 999.7 931.5
15 19.08 н/о н/о +14.8 +7.4 61 1000.7 932.1
16 19.08 н/о н/о +14.1 +6.5 60 1001.3 932.5
17 19.08 н/о н/о +13.3 +6.7 64 1002.3 933.3
18 19.08 н/о н/о +11.8 +6.5 70 1003.0 933.6 +8.4 +17.8
19 19.08 н/о н/о +11.0 +6.6 74 1004.2 934.5
20 19.08 н/о н/о +8.4 +6.4 87 1005.3 934.9
21 19.08 н/о н/о +8.2 +6.3 88 1005.8 935.4
22 19.08 н/о н/о +6.7 +5.7 93 1006.7 935.8
23 19.08 н/о н/о +6.0 +5.1 94 1007.1 936.0
00 20.08 н/о н/о +6.1 +5.5 96 1007.7 936.6
01 20.08 н/о н/о +6.2 +5.5 95 1007.8 936.7
02 20.08 н/о н/о +6.3 +5.7 96 1008.0 936.9
03 20.08 н/о н/о +6.5 +5.9 96 1008.2 937.2
04 20.08 н/о н/о +6.3 +5.7 96 1008.5 937.4
05 20.08 н/о н/о +6.4 +5.8 96 1008.9 937.8
06 20.08 н/о н/о +9.6 +8.0 90 1008.4 938.1 +5.4 +11.8
07 20.08 н/о н/о +11.6 +7.3 75 1008.2 938.4
08 20.08 н/о н/о +12.6 +6.9 68 1008.2 938.6
09 20.08 н/о н/о +16.4 +7.1 54 1007.5 938.8
10 20.08 н/о н/о +15.8 +5.7 51 1007.9 939.1
11 20.08 н/о н/о +17.9 +7.9 52 1007.7 939.3
12 20.08 н/о н/о +17.7 +5.6 45 1008.0 939.6
13 20.08 н/о н/о +17.9 +6.5 47 1008.3 940.0
14 20.08 н/о н/о +16.1 +6.8 54 1009.0 940.2
15 20.08 н/о н/о +17.0 +6.2 49 1009.1 940.5
16 20.08 н/о н/о +15.4 +6.4 55 1010.1 941.0
17 20.08 н/о н/о +14.4 +5.5 55 1010.7 941.4
18 20.08 н/о н/о +13.3 +5.5 59 1011.8 942.1 +9.1 +19.4
19 20.08 н/о н/о +12.0 +5.9 66 1013.2 943.1
20 20.08 н/о н/о +9.2 +5.9 80 1014.6 943.8
21 20.08 н/о н/о +9.6 +6.5 81 1015.2 944.4
22 20.08 н/о н/о +8.2 +5.7 84 1016.0 944.8
23 20.08 н/о н/о +7.2 +3.3 76 1016.4 945.0
00 21.08 н/о н/о +5.2 +3.1 86 1017.4 945.4
01 21.08 н/о н/о +4.9 +3.7 92 1018.1 946.0
02 21.08 н/о н/о +4.7 +3.8 94 1018.6 946.4
03 21.08 н/о н/о +4.9 +4.2 95 1018.8 946.6
05 21.08 н/о н/о +4.4 +3.5 94 1020.0 947.6
06 21.08 н/о н/о +8.2 +6.3 88 1019.5 948.0 +4.1 +13.3
07 21.08 н/о н/о +12.2 +5.2 62 1018.6 948.2
08 21.08 н/о н/о +13.5 +3.9 52 1018.6 948.5

 

Местоположение метеостанции Хемседал II (Норвегия): широта 60.86 долгота 8.59 высота над уровнем моря 604 м.

В архиве по умолчанию представлена погода в Хемседале II за последнюю неделю. Архивные данные за месяц целиком и за предыдущие месяцы, начиная с января 2011 года, Вы можете получить, выбрав интересующий диапазон дат из раскрывающегося списка и нажав кнопку "Ввод!".


*Определитесь, кто Вы:
робот инопланетянин человек

Внимание! Время в таблицах - всемирное. Для получения местного времени необходимо прибавить поправку, которая равна 1 ч.

Смотрите также архив погоды в соседних городах и на ближайших метеорологических станциях:

Погода в Хемседале (Норвегия) (4 км)
Погода в Фагернесе (Норвегия) (38 км)
Погода в Локен и Волбу (Норвегия) (38 км)
Погода в Фагернес аэропорту (Норвегия) (42 км)
Погода в Гейло (Норвегия) (42 км)
Погода в Несбен-Тодокке (Норвегия) (44 км)
Погода в Филефеле (Норвегия) (44 км)
Погода в Бейтостолене (Норвегия) (47 км)
Погода в Гейло аэропорту (Норвегия) (49 км)
Погода на Финсеватнете (Норвегия) (64 км)

Пояснения к столбцам:

Ветер - указаны скорость ветра в м/с - средняя за 10 мин, порывы в срок и между сроками (в фигурных скобках) и направление, откуда дует ветер: С - северный, СВ - северо-восточный, В - восточный, ЮВ - юго-восточный, Ю - южный, ЮЗ - юго-западный, З - западный, СЗ - северо-западный.
Видимость - горизонтальная дальность видимости в метрах или километрах. При видимости от 1 до 10 км при отсутствии осадков обычно наблюдается дымка, при ухудшении видимости до 1 км и менее - туман. В сухую погоду видимость может ухудшаться дымом, пылью или мглою.
Явления - указаны атмосферные явления, наблюдавшиеся в срок или в последний час перед сроком; фигурными скобками обозначены явления, наблюдавшиеся между сроками (за 1-3 часа до срока); квадратными скобками обозначены град или гололедные отложения с указанием их диаметра в мм.
Облачность - указаны через наклонную черту общая и нижняя облачность в баллах и высота нижней границы облаков в метрах; квадратными скобками обозначены формы облаков: Ci - перистые, Cs - перисто-слоистые, Cc - перисто-кучевые, Ac - высококучевые, As - высокослоистые, Sc - слоисто-кучевые, Ns - слоисто-дождевые, Cu - кучевые, Cb - кучево-дождевые. Подробнее классификацию облаков см. в Атласе облаков (PDF).
T - Температура воздуха - температура, измеренная на высоте 2 м над землей.
Td - Температура точки росы - температура, при понижении до которой содержащийся в воздухе водяной пар достигнет насыщения.
f - Относительная влажность воздуха - влажноcть воздуха, измеренная на высоте 2 м над землей.
Te - Эффективная температура - температура, которую ощущает одетый по сезону человек в тени. Характеристика душности погоды. При расчете учитывается влияние влажности воздуха и скорости ветра на теплоощущения человека.
Tes - Эффективная температура на солнце - температура, которую ощущает человек, с поправкой на солнечный нагрев. Характеристика знойности погоды. Зависит от высоты солнца над горизонтом, облачности и скорости ветра. Ночью, в пасмурную погоду, а также при ветре 12 м/с и более поправка равна нулю.
P - Атмосферное давление - приведенное к уровню моря атмосферное давление.
Po - Атмосферное давление - измеренное на уровне метеостанции атмосферное давление.
Tmin - Минимальная температура - минимум температуры воздуха на высоте 2 м над землей.
Tmax - Максимальная температура - максимум температуры воздуха на высоте 2 м над землей.
R - Количество осадков - Количество выпавших осадков за период времени, мм. При наведении курсора мыши на число - период времени, за который выпало указанное количество осадков.
R24 - Количество осадков - Количество выпавших осадков за 24 часа, мм.
S - Снежный покров - Высота снежного покрова, см. При наведении курсора мыши на число - состояние снежного покрова и степень покрытия местности в баллах.